Location: Pedholt
(56.0260°N, 10.2097°E)
Time: 06:17:41
(UTC+00:00)

Resurs 1-4 Rocket - Pass Details

Date: 14 July 2020
Orbit: 799 x 814 km, 98.6° (Epoch: 14 August)

Event Time Altitude Azimuth Distance (km) Brightness Sun altitude
Rises 01:19:07 0° 16° (NNE) 3,354 7.4 -8.7°
Reaches altitude 10° 01:21:28 10° 17° (NNE) 2,417 6.2 -8.5°
Maximum altitude 01:26:51 89° 109° (ESE) 821 2.2 -8.2°
Drops below altitude 10° 01:32:09 10° 198° (SSW) 2,393 3.9 -7.8°
Enters shadow 01:32:22 - 198° (SSW) 2,474 4.0 -7.8°
